DateTimeUTC,F1_A11,F1_S11,BsB_S11,BsG_S11,BsR_S11,BbsB_S11,BbsG_S11,BbsR_S11,BaB_A11,BaG_A11,BaR_A11,Tu_S11,T_S11,Uu_S11,U_S11,P_S11,T1_A11
2021-10-29T04:00:00Z,00000200,21000000,,,,,,,0000.23,0000.29,-000.32,17.7,25.1,,00.0,0645.9,31.0
2021-10-29T04:01:00Z,00000200,21000000,,,,,,,0000.51,0000.20,0000.16,17.8,25.2,,00.0,0645.9,31.0
2021-10-29T04:02:00Z,00000200,21000000,,,,,,,0000.58,0000.29,0000.75,17.8,25.2,,00.0,0645.9,31.0
2021-10-29T04:03:00Z,00000200,61000000,,,,,,,0000.62,0000.86,0000.47,17.8,25.2,,00.0,0645.9,31.1
2021-10-29T04:04:00Z,00000200,41000000,-000.08,0000.32,-000.25,0000.12,0000.20,-000.01,-000.23,0000.03,0000.11,18.2,25.1,,00.0,0646.7,31.1
2021-10-29T04:05:00Z,00000200,01000000,-000.49,0000.31,-000.06,-000.55,0000.13,0000.22,0000.42,0000.26,0000.14,18.3,25.0,,00.0,0646.8,31.1
2021-10-29T04:06:00Z,00000200,01000000,0000.34,0000.48,-000.17,-000.17,0000.22,0000.05,0000.12,0000.19,0000.27,18.3,25.0,,00.0,0646.8,31.1
2021-10-29T04:07:00Z,00000200,01000000,-000.19,0000.40,-000.23,0000.01,0000.32,0000.10,0000.34,-000.05,-000.28,18.3,25.0,,00.0,0646.8,31.1
2021-10-29T04:08:00Z,00000200,01000000,-000.62,-000.04,0000.14,0000.04,-000.30,0000.42,0000.06,0000.45,0000.21,18.3,25.0,,00.0,0646.7,31.1
2021-10-29T04:09:00Z,00000200,01000000,0000.53,0000.48,-000.29,0000.29,-000.10,-000.17,-000.18,-000.47,-000.45,18.2,25.0,,00.0,0646.7,31.0
2021-10-29T04:10:00Z,00000200,01000000,0000.69,0000.20,-000.19,0000.35,0000.05,0000.13,-000.13,-000.19,0000.18,18.1,24.9,,00.0,0646.7,31.0
2021-10-29T04:11:00Z,00000200,01000000,-000.09,0000.69,0000.26,-000.02,0000.07,0000.13,-000.24,0000.05,-000.18,18.0,24.9,,00.0,0646.7,31.0
2021-10-29T04:12:00Z,00000200,01000000,0000.04,0000.97,0000.17,0000.40,-000.14,0000.03,-000.04,0000.06,-000.02,18.0,24.8,,00.0,0646.7,31.0
2021-10-29T04:13:00Z,00000200,01000000,-000.56,0000.53,0000.02,0000.23,-000.01,-000.03,-000.24,-000.25,-000.35,18.1,24.8,,00.0,0646.7,31.0
2021-10-29T04:14:00Z,00000200,01000000,0000.43,-000.01,-000.26,0000.16,0000.34,-000.26,0000.24,-000.02,0000.40,18.1,24.9,,00.0,0646.7,31.0
2021-10-29T04:15:00Z,00000200,01000000,0000.22,0000.24,-000.17,-000.19,0000.25,0000.28,-000.31,-000.21,-000.14,18.1,24.9,,00.0,0646.7,31.0
2021-10-29T04:16:00Z,00000200,01000000,0000.82,0000.19,0000.11,-000.00,0000.24,0000.20,0000.37,0000.62,0000.11,18.2,24.9,,00.0,0646.7,31.1
2021-10-29T04:17:00Z,00000200,01000000,0000.33,0000.34,-000.00,0000.17,0000.10,-000.03,-000.01,0000.07,0000.06,18.2,24.9,,00.0,0646.7,31.1
2021-10-29T04:18:00Z,00000200,01000000,0000.10,0000.58,-000.21,0000.10,0000.01,0000.35,0000.35,0000.24,0000.28,18.3,24.9,,00.0,0646.7,31.1
2021-10-29T04:19:00Z,00000200,01000000,0000.04,0000.13,-000.17,0000.33,0000.14,0000.19,0000.25,0000.14,0000.19,18.3,25.0,,00.0,0646.7,31.1
2021-10-29T04:20:00Z,00000200,01000000,0000.28,0000.24,-000.10,0000.05,0000.16,0000.23,-000.10,-000.32,-000.04,18.4,25.0,,00.0,0646.8,31.1
2021-10-29T04:21:00Z,00000200,01000000,0000.32,0000.12,-000.15,-000.27,0000.12,-000.21,-000.77,-000.54,-000.36,18.4,25.0,,00.0,0646.9,31.1
2021-10-29T04:22:00Z,00000200,01000000,0000.19,0000.16,-000.07,-000.46,-000.00,-000.15,0000.22,0000.20,-000.09,18.5,25.0,,00.0,0646.8,31.1
2021-10-29T04:23:00Z,00000200,01000000,-000.27,0000.49,0000.15,-000.28,-000.08,-000.28,-000.04,0000.11,0000.16,18.5,25.0,,00.0,0646.8,31.1
2021-10-29T04:24:00Z,00000200,01000000,0000.55,0000.65,-000.40,0000.71,-000.10,-000.08,0000.09,-000.31,-000.24,18.6,25.0,,00.0,0646.9,31.1
2021-10-29T04:25:00Z,00000200,01000000,0000.34,0000.42,-000.13,-000.00,-000.05,0000.01,-000.73,-000.00,-000.19,18.5,25.0,,00.0,0646.9,31.1
2021-10-29T04:26:00Z,00000200,01000000,0000.36,0000.58,0000.22,-000.35,0000.14,0000.09,0000.11,-000.25,-000.09,18.5,25.0,,00.0,0646.9,31.1
2021-10-29T04:27:00Z,00000200,01000000,-000.60,0000.30,-000.10,-000.51,0000.17,0000.02,0000.02,0000.09,-000.15,18.5,25.0,,00.0,0646.9,31.1
2021-10-29T04:28:00Z,00000200,01000000,-000.49,0000.50,-000.05,0000.06,0000.09,0000.08,0000.09,0000.19,0000.26,18.5,25.0,,00.0,0646.9,31.1
2021-10-29T04:29:00Z,00000200,01000000,0000.58,0000.82,0000.10,-000.20,0000.11,0000.01,-000.05,-000.19,0000.01,18.5,25.0,,00.0,0646.9,31.1
2021-10-29T04:30:00Z,00000200,01000000,0000.93,0000.18,0000.05,-000.51,0000.20,-000.13,0000.14,0000.21,-000.08,18.6,25.1,,00.0,0646.9,31.1
2021-10-29T04:31:00Z,00000200,01000000,-000.61,0000.21,-000.14,0000.03,-000.11,-000.21,0000.25,0000.07,0000.42,18.6,25.1,,00.0,0646.9,31.1
2021-10-29T04:32:00Z,00000200,01000000,0000.99,0000.34,0000.06,-000.25,-000.16,-000.28,0000.11,-000.05,0000.15,18.6,25.1,,00.0,0646.9,31.1
2021-10-29T04:33:00Z,00000200,01000000,0000.01,0000.38,-000.25,-000.09,-000.02,-000.09,0000.38,0000.58,0000.01,18.7,25.1,,00.0,0646.9,31.1
2021-10-29T04:34:00Z,00000200,01000000,0000.14,0000.40,-000.32,-000.41,-000.09,-000.14,0000.36,0000.60,0000.13,18.7,25.1,,00.0,0646.9,31.1
2021-10-29T04:35:00Z,00000200,01000000,0000.06,0000.36,-000.22,0000.34,0000.13,-000.19,-000.01,0000.06,0000.30,18.8,25.1,,00.0,0646.9,31.1
2021-10-29T04:36:00Z,00000200,01000000,0000.36,0000.36,-000.21,-000.77,-000.05,-000.18,0000.26,0000.10,0000.12,18.8,25.2,,00.0,0646.9,31.1
2021-10-29T04:37:00Z,00000200,01000000,-000.48,0000.41,-000.20,-000.29,-000.11,-000.06,0000.35,0000.13,0000.02,18.8,25.2,,00.0,0646.9,31.1
2021-10-29T04:38:00Z,00000200,01000000,0000.63,0000.02,-000.13,0000.26,0000.50,-000.04,0000.01,0000.12,0000.40,18.8,25.2,,00.0,0646.9,31.1
2021-10-29T04:39:00Z,00000200,01000000,0000.21,0000.37,-000.11,0000.07,0000.07,0000.01,0000.31,0000.19,0000.07,18.7,25.2,,00.0,0646.8,31.1
2021-10-29T04:40:00Z,00000200,01000000,0000.55,0000.50,0000.03,-000.04,0000.07,0000.18,0000.02,0000.31,0000.10,18.6,25.1,,00.0,0646.8,31.1
2021-10-29T04:41:00Z,00000200,01000000,-000.13,0000.14,0000.08,0000.08,0000.16,-000.11,-000.12,-000.23,-000.11,18.5,25.1,,00.0,0646.9,31.1
2021-10-29T04:42:00Z,00000200,01000000,-000.18,0000.52,-000.01,0000.11,0000.03,-000.03,0000.14,0000.25,0000.03,18.5,25.0,,00.0,0646.9,31.0
2021-10-29T04:43:00Z,00000200,01000000,-000.10,0000.40,0000.14,0000.68,0000.31,-000.02,0000.25,-000.15,0000.04,18.5,25.0,,00.0,0646.9,31.1
2021-10-29T04:44:00Z,00000200,01000000,-000.44,0000.26,-000.17,0000.27,-000.16,0000.05,-000.08,-000.19,-000.06,18.5,25.0,,00.0,0646.9,31.1
2021-10-29T04:45:00Z,00000200,01000000,0000.36,0000.39,-000.26,0000.63,0000.01,-000.21,0000.61,0000.84,0000.24,18.5,25.0,,00.0,0646.8,31.1
2021-10-29T04:46:00Z,00000200,01000000,0000.66,0000.20,0000.28,-000.15,-000.05,-000.18,0000.74,0000.73,0000.71,18.6,25.1,,00.0,0646.8,31.1
2021-10-29T04:47:00Z,00000200,01000000,0000.09,0000.26,-000.18,0000.44,0000.05,-000.06,0000.11,-000.22,0000.19,18.6,25.1,,00.0,0646.8,31.1
2021-10-29T04:48:00Z,00000200,01000000,0000.88,0000.35,-000.21,0000.44,0000.08,0000.06,-000.11,-000.04,-000.06,18.7,25.1,,00.0,0646.9,31.1
2021-10-29T04:49:00Z,00000200,01000000,0000.35,0000.36,0000.29,0000.16,0000.02,0000.28,0000.33,0000.55,0000.50,18.7,25.1,,00.0,0646.8,31.1
2021-10-29T04:50:00Z,00000200,01000000,0000.02,0000.32,0000.02,-000.16,0000.27,0000.02,0000.33,0000.29,-000.31,18.8,25.2,,00.0,0646.9,31.1
2021-10-29T04:51:00Z,00000200,01000000,-000.12,0000.33,0000.09,0000.04,0000.36,-000.09,-000.57,-000.32,-000.02,18.8,25.2,,00.0,0646.9,31.1
2021-10-29T04:52:00Z,00000200,01000000,-000.27,0000.64,0000.10,-000.22,0000.26,0000.21,0000.14,-000.26,0000.11,18.8,25.2,,00.0,0646.9,31.1
2021-10-29T04:53:00Z,00000200,01010000,0000.36,0000.36,0000.23,-000.35,0000.08,0000.24,0000.19,0000.11,-000.08,18.8,25.2,,00.0,0646.9,31.1
2021-10-29T04:54:00Z,00000200,01000000,0000.45,0000.45,-000.07,0000.36,-000.02,0000.13,0000.21,0000.07,-000.15,18.8,25.2,,00.0,0646.9,31.1
2021-10-29T04:55:00Z,00000200,01000000,0000.28,0000.49,-000.08,-000.41,-000.13,-000.25,0000.09,0000.31,0000.57,18.7,25.2,,00.0,0646.8,31.1
2021-10-29T04:56:00Z,00000200,01000000,0000.32,0000.50,-000.50,0000.49,0000.27,0000.11,0000.18,0000.14,-000.05,18.7,25.2,,00.0,0646.8,31.1
2021-10-29T04:57:00Z,00000200,41000000,,,,,,,0000.43,0000.27,0000.15,18.7,25.2,,00.0,0646.8,31.1
2021-10-29T04:58:00Z,00000200,61000000,,,,,,,-000.10,-000.15,0000.42,18.4,25.3,,00.0,0645.8,31.1
2021-10-29T04:59:00Z,00000200,21000000,,,,,,,0000.31,0000.70,0000.12,18.4,25.4,,00.0,0645.8,31.1
